Weather History for KPBG - December, 2013

Change the Weather History Date:

Sunday, December 1, 2013

  Actual Average Record
Temperature  
Mean Temperature 31 °F 30 °F  
Max Temperature 35 °F 39 °F - ()
Min Temperature 26 °F 22 °F - ()
Degree Days  
Heating Degree Days 34 35  
Month to date heating degree days 34 35  
Since 1 July heating degree days 1739 1669  
Cooling Degree Days 0 0  
Month to date cooling degree days 0  
Year to date cooling degree days 346  
Moisture  
Dew Point 24 °F    
Average Humidity 75    
Maximum Humidity 100    
Minimum Humidity 50    
Precipitation  
Precipitation 0.01 in - - ()
Month to date precipitation 0.01  
Year to date precipitation 30.59  
Sea Level Pressure  
Sea Level Pressure 30.14 in    
Wind  
Wind Speed 2 mph (SSW)    
Max Wind Speed 10 mph    
Max Gust Speed 14 mph    
Visibility 6 miles    
Events Snow    
T = Trace of Precipitation, MM = Missing Value Source: NWS Daily Summary

Daily Weather History Graph

Daily Weather History Graph

Search for Another Location

Airport or City:

Trip Planner

Search our weather history database for the weather conditions in past years. The results will help you decide how hot, cold, wet, or windy it might be!

Date:

Astronomy

Dec. 01, 2013 Rise Set
Actual Time 7:10 AM EST 4:14 PM EST
Civil Twilight 6:38 AM EST 4:47 PM EST
Nautical Twilight 6:01 AM EST 5:24 PM EST
Astronomical Twilight 5:26 AM EST 5:59 PM EST
Moon 5:22 AM EST (12/1) 3:25 PM EST (12/1)
Length of Visible Light 10h 09m
Length of Day
9h 03m
Waning Crescent, 2% of the Moon is Illuminated
Dec 1
Waning Crescent
Dec 2
New
Dec 9
First Quarter
Dec 17
Full
Dec 25
Last Quarter

Hourly Weather History & Observations

Time (EST) Temp. Windchill Dew Point Humidity Pressure Visibility Wind Dir Wind Speed Gust Speed Precip Events Conditions
12:53 AM 28.9 °F 20.4 °F 12.9 °F 51% 30.27 in 10.0 mi South 9.2 mph - N/A   Clear
1:53 AM 28.9 °F 22.8 °F 14.0 °F 54% 30.27 in 10.0 mi South 5.8 mph - N/A   Partly Cloudy
2:53 AM 28.9 °F 23.9 °F 15.1 °F 56% 30.25 in 10.0 mi South 4.6 mph - N/A   Partly Cloudy
3:53 AM 28.9 °F 25.2 °F 16.0 °F 58% 30.23 in 10.0 mi South 3.5 mph - N/A   Partly Cloudy
4:53 AM 28.9 °F 25.2 °F 18.0 °F 64% 30.22 in 10.0 mi SSW 3.5 mph - N/A   Overcast
5:53 AM 28.0 °F - 18.0 °F 66% 30.21 in 10.0 mi Calm Calm - N/A   Overcast
6:53 AM 27.0 °F 21.6 °F 18.0 °F 69% 30.21 in 10.0 mi SW 4.6 mph - N/A   Mostly Cloudy
7:53 AM 28.0 °F - 18.0 °F 66% 30.20 in 10.0 mi Calm Calm - N/A   Overcast
8:53 AM 28.9 °F - 19.0 °F 67% 30.19 in 10.0 mi Calm Calm - N/A   Mostly Cloudy
9:53 AM 30.9 °F - 19.9 °F 64% 30.19 in 10.0 mi Calm Calm - N/A   Mostly Cloudy
10:53 AM 33.1 °F - 21.0 °F 61% 30.17 in 10.0 mi Calm Calm - N/A   Overcast
11:53 AM 34.0 °F - 21.9 °F 61% 30.14 in 10.0 mi Calm Calm - N/A   Mostly Cloudy
12:53 PM 35.1 °F - 23.0 °F 61% 30.12 in 10.0 mi Calm Calm - N/A   Overcast
1:53 PM 35.1 °F - 23.0 °F 61% 30.11 in 10.0 mi Calm Calm - N/A   Overcast
2:53 PM 35.1 °F - 23.0 °F 61% 30.12 in 9.0 mi Calm Calm - N/A   Overcast
3:53 PM 32.0 °F - 27.0 °F 82% 30.12 in 2.0 mi Calm Calm - 0.00 in Snow Light Snow
4:01 PM 32.0 °F - 28.4 °F 87% 30.10 in 1.8 mi Calm Calm - 0.00 in Snow Light Snow
4:20 PM 30.2 °F - 28.4 °F 93% 30.10 in 2.0 mi Calm Calm - 0.00 in Snow Light Snow
4:33 PM 30.2 °F - 28.4 °F 93% 30.10 in 2.5 mi Calm Calm - 0.00 in Snow Light Snow
4:53 PM 30.9 °F - 28.9 °F 92% 30.12 in 2.0 mi Calm Calm - 0.00 in Snow Light Snow
5:38 PM 30.2 °F - 28.4 °F 93% 30.10 in 2.5 mi Calm Calm - 0.00 in Snow Light Snow
5:53 PM 30.9 °F - 28.9 °F 92% 30.11 in 2.0 mi Calm Calm - 0.01 in Snow Light Snow
6:15 PM 30.2 °F - 28.4 °F 93% 30.10 in 2.5 mi Calm Calm - 0.00 in Snow Light Snow
6:22 PM 30.2 °F - 28.4 °F 93% 30.10 in 3.0 mi Calm Calm - 0.00 in Snow Light Snow
6:53 PM 30.9 °F - 28.9 °F 92% 30.11 in 3.0 mi Calm Calm - 0.00 in Snow Light Snow
7:35 PM 30.2 °F - 28.4 °F 93% 30.08 in 3.0 mi Calm Calm - 0.00 in Snow Light Snow
7:43 PM 30.2 °F - 28.4 °F 93% 30.08 in 2.5 mi Calm Calm - 0.00 in Snow Light Snow
7:53 PM 30.9 °F - 28.9 °F 92% 30.09 in 3.0 mi Calm Calm - 0.00 in Snow Light Snow
8:53 PM 30.9 °F 27.5 °F 28.9 °F 92% 30.08 in 5.0 mi West 3.5 mph - N/A   Overcast
9:53 PM 30.9 °F - 30.0 °F 96% 30.07 in 5.0 mi Calm Calm - N/A   Overcast
10:53 PM 32.0 °F - 30.0 °F 92% 30.06 in 5.0 mi Calm Calm - N/A   Overcast
11:53 PM 32.0 °F 28.7 °F 30.0 °F 92% 30.05 in 3.0 mi NNW 3.5 mph - N/A   Overcast